Weather History for Fayetteville, AR

Change the Weather History Date:

Wednesday, December 19, 2012

  Actual Average Record
Temperature  
Mean Temperature 47 °F 36 °F  
Max Temperature 64 °F 47 °F 72 °F (1978)
Min Temperature 30 °F 26 °F 6 °F (2000)
Degree Days  
Heating Degree Days 18 29  
Month to date heating degree days 335 504  
Since 1 July heating degree days 1148 1333  
Moisture  
Dew Point 46 °F    
Average Humidity 86    
Maximum Humidity 100    
Minimum Humidity 72    
Precipitation  
Precipitation 0.65 in 0.09 in 0.72 in (1952)
Month to date precipitation 1.93 2.06  
Year to date precipitation 29.84 47.33  
Sea Level Pressure  
Sea Level Pressure 29.67 in    
Wind  
Wind Speed 8 mph (South)    
Max Wind Speed 35 mph    
Max Gust Speed 45 mph    
Visibility 10 miles    
Events Rain , Thunderstorm    
T = Trace of Precipitation, MM = Missing Value Source: NWS Daily Summary

Daily Weather History Graph

Daily Weather History Graph

Search for Another Location

Airport:

Trip Planner

Search our weather history database for the weather conditions in past years. The results will help you decide how hot, cold, wet, or windy it might be!

Date:

Astronomy

Dec. 19, 2012 Rise Set
Actual Time 7:22 AM CST 5:05 PM CST
Civil Twilight 6:54 AM CST 5:34 PM CST
Nautical Twilight 6:21 AM CST 6:06 PM CST
Astronomical Twilight 5:50 AM CST 6:37 PM CST
Moon 11:44 AM CST (12/19) No Moon Set
Length of Visible Light 10h 40m
Length of Day
9h 42m
Waxing Crescent, 45% of the Moon is Illuminated
Dec 19
Waxing Crescent
Dec 19
First Quarter
Dec 28
Full
Jan 4
Last Quarter
Jan 11
New

Hourly Weather History & Observations

Time (CST) Temp. Dew Point Humidity Pressure Visibility Wind Dir Wind Speed Gust Speed Precip Events Conditions
12:53 AM 30.0 °F 28.0 °F 92% 29.84 in 10.0 mi Calm Calm - N/A   Clear
1:53 AM 30.0 °F 28.0 °F 92% 29.85 in 10.0 mi Calm Calm - N/A   Clear
2:53 AM 30.9 °F 28.9 °F 92% 29.82 in 10.0 mi Calm Calm - N/A   Clear
3:53 AM 30.9 °F 30.0 °F 96% 29.81 in 10.0 mi Calm Calm - N/A   Clear
4:53 AM 32.0 °F 30.0 °F 92% 29.81 in 10.0 mi Calm Calm - N/A   Clear
5:53 AM 33.1 °F 30.0 °F 89% 29.80 in 10.0 mi Calm Calm - N/A   Clear
6:53 AM 33.1 °F 30.9 °F 92% 29.80 in 10.0 mi Calm Calm - N/A   Clear
7:53 AM 33.1 °F 30.9 °F 92% 29.80 in 10.0 mi Calm Calm - N/A   Clear
8:53 AM 37.9 °F 34.0 °F 86% 29.79 in 10.0 mi Calm Calm - N/A   Clear
9:53 AM 52.0 °F 51.1 °F 97% 29.77 in - South 11.5 mph 18.4 mph 0.16 in   Partly Cloudy
10:53 AM 61.0 °F 53.1 °F 75% 29.75 in 10.0 mi North - - N/A   Mostly Cloudy
11:53 AM 62.1 °F 54.0 °F 75% 29.72 in 10.0 mi South 10.4 mph - N/A   Mostly Cloudy
12:53 PM 62.1 °F 54.0 °F 75% 29.68 in 10.0 mi South 17.3 mph 25.3 mph N/A   Scattered Clouds
1:53 PM 62.1 °F 55.0 °F 78% 29.65 in 10.0 mi South 17.3 mph 21.9 mph N/A   Clear
2:53 PM 61.0 °F 55.0 °F 81% 29.64 in 10.0 mi South 10.4 mph 18.4 mph N/A   Mostly Cloudy
3:53 PM 61.0 °F 55.0 °F 81% 29.62 in 10.0 mi SSE 10.4 mph 20.7 mph N/A   Mostly Cloudy
4:53 PM 61.0 °F 55.9 °F 83% 29.60 in 10.0 mi SSE 12.7 mph 21.9 mph N/A   Scattered Clouds
5:53 PM 61.0 °F 55.9 °F 83% 29.59 in 10.0 mi South 10.4 mph - N/A   Clear
6:53 PM 62.1 °F 57.0 °F 84% 29.57 in 10.0 mi South 13.8 mph - N/A   Partly Cloudy
7:53 PM 64.0 °F 57.9 °F 80% 29.54 in 10.0 mi South 15.0 mph 25.3 mph N/A   Partly Cloudy
8:53 PM 64.0 °F 57.9 °F 80% 29.50 in 10.0 mi South 19.6 mph 26.5 mph N/A   Clear
9:20 PM 62.6 °F 59.0 °F 88% 29.51 in 8.0 mi SSW 13.8 mph 29.9 mph 0.01 in Rain , Thunderstorm Light Rain
9:53 PM 61.0 °F 60.1 °F 97% 29.50 in 4.0 mi SW 10.4 mph 23.0 mph 0.51 in Rain , Thunderstorm Thunderstorms and Rain
10:50 PM 55.4 °F 53.6 °F 94% 29.48 in 10.0 mi South 10.4 mph - 0.14 in Rain Light Rain
10:53 PM 55.9 °F 53.1 °F 90% 29.46 in 10.0 mi South 8.1 mph - 0.14 in Rain Light Rain
11:53 PM 57.0 °F 48.9 °F 74% 29.47 in 10.0 mi WSW 9.2 mph - 0.00 in   Overcast